Location: Unspecified
(0.0000°N, 0.0000°E)
Time: 01:53:35
(UTC+00:00)

Transit 4A - Pass Details

Date: 02 October 2020
Orbit: 862 x 982 km, 66.8° (Epoch: 25 October)

Event Time Altitude Azimuth Distance (km) Brightness Sun altitude
Rises 18:07:30 0° 162° (SSE) 3,463 10.7 -4.6°
Reaches altitude 10° 18:11:44 10° 133° (SE) 2,544 9.8 -5.6°
Maximum altitude 18:13:58 12° 110° (ESE) 2,397 9.5 -6.2°
Drops below altitude 10° 18:16:14 10° 87° (E) 2,568 9.5 -6.8°
Enters shadow 18:17:23 - 77° (ENE) 2,764 9.7 -7.1°
